Other Public Products
Issued by NWS Grand Forks, ND

Home | Current Version | Previous Version | Graphics & Text | Print | Product List | Glossary On
Versions: 1 2 3 4 5 6 7 8 9 10 11 12 13 14 15 16 17 18 19 20 21 22 23 24 25 26 27 28 29 30 31 32 33 34 35 36 37 38 39 40 41 42 43 44 45 46 47 48 49 50
000
FPUS83 KFGF 251010
OPUFGF
PRAIRIE TO PINES WEATHER ROUNDUP
NATIONAL WEATHER SERVICE EASTERN NORTH DAKOTA/GRAND FORKS ND
500 AM CDT SAT APR 25 2015

 **SATELLITE DATA USED TO AUGMENT SKY COVER AT AUTOMATED STATIONS**
 *****  WEATHER ACROSS EASTERN NORTH DAKOTA  *****

CITY           SKY/WX    TMP DP  RH WIND       PRES   REMARKS
GRAND FORKS    CLOUDY    44  33  65 E7        29.84R
GRAND FORKS AF CLOUDY    43  33  67 E7        29.84R
GRAND CITY NWS   N/A     41 N/A N/A E10         N/A
BUXTON         NOT AVBL
DEVILS LAKE    CLOUDY    43  36  75 SE7       29.81R
FARGO          CLOUDY    43  36  76 E9        29.80R
WAHPETON ARPT  CLOUDY    43  39  87 E8        29.78S
$$

 *****  WEATHER ACROSS CENTRAL AND WESTERN NORTH DAKOTA  *****

CITY           SKY/WX    TMP DP  RH WIND       PRES   REMARKS
JAMESTOWN      CLOUDY    42  41  96 E13       29.77R FOG
BISMARCK       CLOUDY    44  41  89 E10       29.75R
MINOT          CLEAR     36  34  92 E7        29.77R FOG
MINOT AFB      CLEAR     34  34 100 SE7       29.77R FOG
GARRISON         N/A     40  39  97 SE9       29.75R
WILLISTON      CLOUDY    47  39  74 E7        29.69R
DICKINSON      FOG       42  40  92 SE18      29.69S VSB 1/4
HETTINGER      FOG       42  41  96 SE9       29.71R VSB 1/4
$$

 *****  OTHER OBSERVATIONS NORTHEAST NORTH DAKOTA  *****

CITY           SKY/WX    TMP DP  RH WIND       PRES   REMARKS
WALHALLA       CLOUDY    30  30 100 NW5       29.88R
LANGDON        CLOUDY    39  32  75 E8        29.84R
CAVALIER       CLOUDY    39  34  81 SE3       29.86R
GRAFTON        CLOUDY    43  34  70 E9        29.86R
CANDO          CLOUDY    39  36  87 E8        29.82S
FORT TOTTEN    NOT AVBL
ROLLA          CLOUDY    36  34  93 SE6       29.83R
RUGBY          NOT AVBL
 ***** THE ABOVE OBSERVATIONS ARE NON NWS ARE NOT QUALITY
        CONTROLLED AND MAY MIS-REPORT RAIN FOR SNOW...
$$

 *****  OTHER OBSERVATIONS SOUTHEAST NORTH DAKOTA *****

CITY           SKY/WX    TMP DP  RH WIND       PRES   REMARKS
COOPERSTOWN    NOT AVBL
VALLEY CITY    CLOUDY    41  41 100 E9        29.79R
OAKES            N/A     41  41 100 E15       29.75R FOG
GWINNER        CLOUDY    43  43 100 E12       29.76S
SHEYENNE NWR     N/A     43  42  97 E8        29.95S
BUFFALO        NOT AVBL
WYNDMERE       NOT AVBL
 ***** THE ABOVE OBSERVATIONS ARE NON NWS ARE NOT QUALITY
       CONTROLLED AND MAY MIS-REPORT RAIN FOR SNOW...
$$

  *****  WEATHER ACROSS NORTHERN MINNESOTA  *****

CITY           SKY/WX    TMP DP  RH WIND       PRES   REMARKS
FLAG ISLAND    CLOUDY    39  27  60 E7        29.93R
WARROAD        CLOUDY    37  28  70 E8        29.92R
ROSEAU         CLOUDY    41  28  60 E8        29.90R
HALLOCK        CLOUDY    41  32  70 E8        29.87R
THF RVR FALLS  CLOUDY    41  30  65 E12       29.87R
HALSTAD        NOT AVBL
FOSSTON        CLOUDY    39  30  70 E6        29.86R
BAUDETTE       CLOUDY    38  23  55 SE9       29.92R
WASKISH        CLOUDY    37  23  56 E6        29.90R
CROOKSTON      CLOUDY    43  32  65 E10       29.85R
$$
  *****  WEATHER ACROSS CENTRAL AND WEST MINNESOTA  *****

CITY           SKY/WX    TMP DP  RH WIND       PRES   REMARKS
BEMIDJI        CLOUDY    38  26  61 E9        29.87S
PARK RAPIDS    CLOUDY    41  31  67 E8        29.84R
WADENA         CLOUDY    37  32  81 NE9       29.82R
DETROIT LAKES  CLOUDY    41  34  75 SE9       29.82S
MOORHEAD       CLOUDY    43  36  75 E9        29.82R
FERGUS FALLS   CLOUDY    43  37  81 E9        29.80S
ELBOW LAKE     CLOUDY    42  41  95 E12       29.77R
MORRIS MN      CLOUDY    43  43 100 E16       29.74S FOG
STAPLES        CLOUDY    37  32  81 E9        29.83R
WHEATON        CLOUDY    39  39 100 E12       29.77R FOG
$$
  *****  WEATHER ELSEWHERE ACROSS MINNESOTA  *****

CITY           SKY/WX    TMP DP  RH WIND       PRES   REMARKS
DULUTH         CLOUDY    35  24  64 E13       29.92R
INTRNTL FALLS  CLOUDY    37  19  48 SE8       29.94R
ELY            CLOUDY    36  12  38 E3        29.95S
CLOQUET        CLOUDY    34  27  75 E9        29.90S
BRAINERD       CLOUDY    38  30  73 E9        29.85R
HIBBING        CLOUDY    37  16  42 E8        29.91R
ALEXANDRIA     LGT RAIN  41  40  96 E13       29.79R FOG
SAINT CLOUD    CLOUDY    43  37  79 E8        29.82R
MINNEAPOLIS    CLOUDY    43  38  82 E15       29.81S
$$

  *****  WEATHER ACROSS SOUTH DAKOTA  *****

CITY           SKY/WX    TMP DP  RH WIND       PRES   REMARKS
SIOUX FALLS    CLOUDY    46  43  89 E14       29.61F
BROOKINGS      CLOUDY    45  43  93 E15       29.66S
WATERTOWN      CLOUDY    42  41  96 E13G23    29.67R FOG
HURON          CLOUDY    48  46  93 NE13      29.63R
SISSETON         N/A     43  42  97 SE13      29.73R
ABERDEEN       CLOUDY    45  42  89 E10       29.71R
MITCHELL       CLOUDY    51  49  92 SE9       29.60R
PIERRE         LGT RAIN  48  46  93 E14       29.63R FOG
MOBRIDGE       CLOUDY    46  43  89 E12       29.68R FOG
RAPID CITY     PTCLDY    42  37  82 N12       29.65S
$$

  *****  SOME WEATHER IN NEARBY STATES *****

CITY           SKY/WX    TMP DP  RH WIND       PRES   REMARKS
GLASGOW MT     MOCLDY    50  35  56 NW9       29.60S
GREAT FALLS MT CLOUDY    39  34  82 SW6       29.75S
CHEYENNE WY    PTCLDY    46  29  51 NW10      29.73R
SCOTTSBLUFF NE CLEAR     41  39  93 NW8       29.67R
OMAHA NE       LGT RAIN  53  51  93 E13G18    29.47R
DES MOINES IA  CLOUDY    49  43  80 E13G29    29.56S
DAVENPORT IA   RAIN      42  38  85 E20G30    29.69F FOG
CHICAGO IL     CLOUDY    43  38  82 E13       29.79F
EAU CLAIRE WI  CLOUDY    41  33  73 E14       29.87R
LA CROSSE WI   CLOUDY    42  36  79 E7        29.82F
$$

  *****  SOME NATIONAL WEATHER *****

CITY           SKY/WX    TMP DP  RH WIND       PRES   REMARKS
LA GUARDIA NY  CLEAR     39  22  50 W12G18    29.91S
RALEIGH NC     CLOUDY    49  43  80 CALM      29.91R
ATLANTA GA     LGT RAIN  64  52  64 S6        29.87F
NEW ORLEANS LA CLOUDY    77  73  87 SW9       29.82F
OKLAHOMA CITY  CLEAR     56  47  71 W8        29.58R
ALBUQUERQUE NM PTCLDY    49  33  54 VRB6      29.97R
SALT LAKE CITY MOCLDY    47  38  71 W3        29.83R
LOS ANGELES CA PTCLDY    57  51  80 CALM      29.99S
BOISE ID       MOCLDY    45  31  58 W7        29.78S
SEATTLE WA     CLOUDY    45  39  81 S3        29.90S
$$

*** WEATHER ACROSS MANITOBA...SASKATCHEWAN AND ONTARIO ***
                ***ONTARIO***

CITY           SKY/WX    TMP DP  RH WIND       PRES   REMARKS
GERALDTON      CLEAR     16  14  93 N3        30.07R
THUNDER BAY    PTCLDY    28  23  80 NE5       30.06R WCI  23
SIOUX LOOKOUT  CLOUDY    32  19  59 VRB2      30.00S
TORONTO        PTCLDY    27  19  74 NW3       29.98F
BIG TROUT LK   CLEAR      9   7  92 E2        30.14S
PICKLE LAKE    NOT AVBL
DRYDEN         CLOUDY    36  25  64 E7        29.98R
KENORA         NOT AVBL
$$
                *** MANITOBA***

CITY           SKY/WX    TMP DP  RH WIND       PRES   REMARKS
BRANDON        CLEAR     30  28  93 E7        29.85R WCI  23
DAUPHIN        CLEAR     36  32  87 SE6       29.87R
ISLAND LAKE    PTCLDY    27  12  54 E5        30.05R WCI  21
PILOT MOUND      N/A     32  28  86 E8          N/A  WCI  25
THE PAS        FLURRIES  25  23  93 N7        29.97R WCI  17
THOMPSON       MOCLDY    25  21  86 NE8       30.03S WCI  16
WINNIPEG       CLEAR     34  28  80 E8        29.90S
CHURCHILL      PTCLDY    10   7  85 S8        30.21S WCI  -1
GILLAM         LGT SNOW  21  18  86 E7        30.14S VSB 1   WCI  13
$$
                ***SASKATCHEWAN***

CITY           SKY/WX    TMP DP  RH WIND       PRES   REMARKS
ESTEVAN        CLOUDY    43  39  87 E13G18    29.74R
KINDERSLEY     CLOUDY    32  30  93 NE23G30   29.74R WCI  19
LLOYDMINSTER   CLOUDY    30  27  86 E12G22    29.86S WCI  21
PRINCE ALBERT  CLOUDY    28  23  80 E16       29.94R WCI  17
REGINA         CLOUDY    46  41  81 E13       29.71R
YORKTON        PTCLDY    41  36  81 NE5       29.81R


USA.gov is the U.S. government's official web portal to all federal, state and local government web resources and services.